Home > Weather > Cadiz > Past weeks

Flag for Spain Weather for the Past 2 Weeks in Cadiz, Cádiz, Spain

Now
59 °F

Overcast.


Feels Like: 59 °F
Forecast: 59 / 63 °F
Wind: 1 mph from North

Location: Rota Airport

Current Time: Feb 9, 2016 at 3:22:23 AM

Latest Report: Feb 9, 2016 at 2:00 AM


Visibility: N/A

Pressure: 30.39 "Hg

Humidity: 72%

Dew point: 50 °F

Location of CadizLocation

Historic Weather in Cadiz — Graph

°F

Cadiz Temperature Yesterday

Maximum temperature yesterday: 63 °F (at 1:00 PM)
Minimum temperature yesterday: 46 °F (at 7:00 AM)
Average temperature yesterday: 55 °F

High & Low Weather Summary for the Past Weeks

 TemperatureHumidityPressure
High70 °F (Feb 1, 2:00 PM)100% (Jan 26, 2:00 AM)30.60 "Hg (Jan 26, 2:00 AM)
Low41 °F (Jan 27, 8:00 AM)46% (Feb 2, 3:00 PM)30.15 "Hg (Feb 6, 7:00 PM)
Average55 °F82%30.38 "Hg
* Reported Jan 25 2:00 AM — Feb 9 2:00 AM, Cadiz, Weather by CustomWeather, © 2016

Note: Actual official high and low records may vary slightly from our data, if they occured in-between our weather recording intervals... More about our weather records

Advertising

Cadiz Weather History for the Previous 24 Hours

 ConditionsComfort  
Time TempWeatherWind HumidityBarometerVisibility
2:00 AM
Tue, Feb 9
59 °FOvercast.1 mph72%30.39 "HgN/A
1:00 AM59 °FPassing clouds.2 mph82%30.42 "HgN/A
12:00 AM57 °FPassing clouds.5 mph88%30.42 "HgN/A
11:00 PM
Mon, Feb 8
52 °FPassing clouds.3 mph88%30.42 "HgN/A
10:00 PM50 °FPassing clouds.2 mph82%30.39 "HgN/A
9:00 PM54 °FPassing clouds.No wind82%30.39 "HgN/A
8:00 PM55 °FPassing clouds.2 mph77%30.42 "HgN/A
7:00 PM59 °FPassing clouds.2 mph68%30.42 "HgN/A
6:00 PM61 °FPassing clouds.7 mph63%30.39 "HgN/A
5:00 PM63 °FScattered clouds.7 mph56%30.39 "HgN/A
4:00 PM63 °FScattered clouds.8 mph59%30.42 "HgN/A
3:00 PM63 °FScattered clouds.6 mph59%30.42 "HgN/A
2:00 PM63 °FPartly sunny.3 mph64%30.45 "HgN/A
1:00 PM63 °FPartly sunny.2 mph59%30.48 "HgN/A
12:00 PM59 °FPartly sunny.3 mph72%30.48 "HgN/A
11:00 AM55 °FPartly sunny.2 mph77%30.48 "HgN/A
10:00 AM54 °FPartly sunny.1 mph88%30.45 "HgN/A
9:00 AM46 °FPassing clouds.No wind87%30.45 "HgN/A
8:00 AM46 °FClear.2 mph87%30.42 "Hg10 mi
7:00 AM46 °FClear.7 mph93%30.42 "Hg10 mi
6:00 AM48 °FPassing clouds.5 mph87%30.42 "HgN/A
5:00 AM48 °FClear.2 mph87%30.39 "Hg10 mi
4:00 AM50 °FClear.5 mph88%30.39 "Hg10 mi
3:00 AM52 °FPassing clouds.7 mph88%30.39 "HgN/A
Weather by CustomWeather, © 2016

See weather overviewHow to use our weather pages